This is the latest recevied weather packets stored in our database for station/object K7AEL. If no packets are shown the sender has not sent any weather packets the latest 10 day(s).
| Time | Temp. | Humidity | Pressure | Rain* | Wind** | Luminosity | Snow |
|---|---|---|---|---|---|---|---|
| 1777595371 | 29.44° C | 13% | 1006.1 hPa | 0 mm | - | 48 W/m² | - |
| 1777595068 | 29.44° C | 13% | 1006.2 hPa | 0 mm | - | 52 W/m² | - |
| 1777594764 | 29.44° C | 13% | 1006 hPa | 0 mm | - | 60 W/m² | - |
| 1777594461 | 30° C | 13% | 1005.9 hPa | 0 mm | - | 69 W/m² | - |
| 1777594156 | 30° C | 13% | 1005.9 hPa | 0 mm | - | 75 W/m² | - |
| 1777593853 | 30° C | 13% | 1006 hPa | 0 mm | - | 75 W/m² | - |
| 1777593549 | 30.56° C | 15% | 1006 hPa | 0 mm | - | 74 W/m² | - |
| 1777593248 | 30.56° C | 16% | 1005.9 hPa | 0 mm | - | 87 W/m² | - |
| 1777592943 | 30.56° C | 15% | 1006 hPa | 0 mm | - | 106 W/m² | - |
| 1777592638 | 30.56° C | 15% | 1005.9 hPa | 0 mm | - | 124 W/m² | - |
| 1777592335 | 30.56° C | 15% | 1005.7 hPa | 0 mm | - | 138 W/m² | - |
| 1777592030 | 30.56° C | 15% | 1005.9 hPa | 0 mm | - | 152 W/m² | - |
| 1777591727 | 31.11° C | 15% | 1006 hPa | 0 mm | - | 158 W/m² | - |
| 1777591422 | 30.56° C | 15% | 1005.9 hPa | 0 mm | - | 138 W/m² | - |
| 1777591119 | 31.11° C | 14% | 1006.2 hPa | 0 mm | - | 122 W/m² | - |
| 1777590814 | 31.11° C | 14% | 1006 hPa | 0 mm | - | 122 W/m² | - |
| 1777590511 | 31.11° C | 13% | 1006.1 hPa | 0 mm | - | 124 W/m² | - |
| 1777590207 | 31.67° C | 13% | 1006.1 hPa | 0 mm | - | 131 W/m² | - |
| 1777589904 | 31.67° C | 12% | 1006.2 hPa | 0 mm | - | 166 W/m² | - |
| 1777589600 | 31.11° C | 12% | 1006.1 hPa | 0 mm | - | 197 W/m² | - |
| 1777589297 | 31.67° C | 12% | 1006.1 hPa | 0 mm | - | 228 W/m² | - |
| 1777588994 | 31.67° C | 12% | 1006.3 hPa | 0 mm | - | 278 W/m² | - |
| 1777588690 | 32.78° C | 11% | 1006.4 hPa | 0 mm | - | 297 W/m² | - |
| 1777588385 | 32.78° C | 12% | 1006.5 hPa | 0 mm | - | 573 W/m² | - |
| 1777588082 | 32.78° C | 12% | 1006.6 hPa | 0 mm | - | 459 W/m² | - |
* Rain latest hour (hover to see other rain measurements)
** Current wind speed in m/s (hover to see current wind gust speed)